Location: Barcelona
(41.3830°N, 2.1830°E)
Time: 00:24:46
(UTC+02:00)

ISS - Pass Details

Date: 27 March 2017
Orbit: 401 x 409 km, 51.6° (Epoch: 01 May)

Event Time Altitude Azimuth Distance (km) Brightness Sun altitude
Rises 21:32:51 0° 222° (SW) 2,305 0.3 -15.8°
Reaches altitude 10° 21:34:57 10° 218° (SW) 1,451 -0.8 -16.2°
Maximum altitude 21:38:08 54° 140° (SE) 499 -3.8 -16.7°
Enters shadow 21:38:31 49° 109° (ESE) 528 -3.7 -16.8°
